Location: St. Louis
(38.6270°N, 90.1994°W)
Time: 17:29:47
(UTC-06:00)

Courier 1B - Pass Details

Date: 30 November 2021
Orbit: 962 x 1209 km, 28.3° (Epoch: 26 January)

Event Time Altitude Azimuth Distance (km) Brightness Sun altitude
Rises 18:17:55 0° 239° (WSW) 3,941 12.0 -18.7°
Reaches altitude 10° 18:21:05 10° 229° (SW) 2,942 10.9 -19.3°
Maximum altitude 18:27:14 31° 170° (S) 1,745 8.8 -20.5°
Enters shadow 18:30:30 21° 128° (SE) 2,114 8.9 -21.1°
